Tracking 28790 objects as of 18-Apr-2024
HD Live streaming from Space Station
objects crossing your sky now

FLOCK 4Y 9

Track FLOCK 4Y 9 now!
10-day predictions
FLOCK 4Y 9 is classified as:


NORAD ID: 55069
Int'l Code: 2023-001BN
Perigee: 486.4 km
Apogee: 503.2 km
Inclination: 97.4 °
Period: 94.4 minutes
Semi major axis: 6865 km
RCS: Unknown
Launch date: January 3, 2023
Source: United States (US)
Launch site: AIR FORCE EASTERN TEST RANGE (AFETR)
Your satellite tracking list
Your tracking list is empty




NASA's NSSDC Master Catalog

Two Line Element Set (TLE):
1 55069U 23001BN  24109.18744177  .00025341  00000-0  98259-3 0  9997
2 55069  97.4338 171.5055 0012249  32.9095 327.2903 15.26046103 71621
Source of the keplerian elements: AFSPC